Powrót do katalogu

THOR AGENA B DEB

AktywnyUNKNOWN
NORAD 2092·DEBRIS·🇺🇸 United States

Wystrzelony Nov 29, 1965 z Vandenberg Space Force Base

Loading…

Następne Przeloty (najbliższe 24 godziny)

TLE

ŚwieżeSource: Space-Track

Epoka: Sep 14, 2026, 12:32 UTC

1 02092U 65098H   26257.52227998  .00000569  00000-0  18914-3 0  9993
2 02092  79.8613 284.4306 1295026 282.9554  63.0315 12.35206144691457

Śledź THOR AGENA B DEB w czasie rzeczywistym z AllMySat

Download on the App Store